Retour au catalogue

BREEZE-M DEB

ActifHEO
NORAD 38602·DEBRIS·🇷🇺 Russia

Lancé Mar 14, 2008 depuis Baikonur Cosmodrome

Loading…

Prochains Passages (prochaines 24 heures)

TLE

FraisSource: Space-Track

Époque: Sep 13, 2026, 20:43 UTC

1 38602U 08011AZ  26256.86366513  .00002279  00000-0  30511-2 0  9990
2 38602  48.7538  62.1153 6428028 163.9503 234.2636  3.32676455185237

Suivez BREEZE-M DEB en temps réel avec AllMySat

Download on the App Store